Weather History for KOZR - July, 2013

Change the Weather History Date:

Sunday, July 21, 2013

  Actual Average (KDHN) Record (KDHN)
Temperature  
Mean Temperature 80 °F 82 °F  
Max Temperature 86 °F 92 °F - ()
Min Temperature 73 °F 72 °F - ()
Cooling Degree Days 14 17  
Month to date cooling degree days 356  
Year to date cooling degree days 1213  
Since 1 June cooling degree days 800  
Growing Degree Days 30 (Base 50)    
Moisture  
Dew Point 74 °F    
Average Humidity 93    
Maximum Humidity 100    
Minimum Humidity 66    
Precipitation  
Precipitation 0.41 in 0.17 in - ()
Month to date precipitation 4.03  
Year to date precipitation 31.99  
Sea Level Pressure  
Sea Level Pressure 30.04 in    
Wind  
Wind Speed 5 mph (SSW)    
Max Wind Speed 18 mph    
Max Gust Speed 28 mph    
Visibility 6 miles    
Events Fog , Rain , Thunderstorm    
T = Trace of Precipitation, MM = Missing Value Source: NWS Daily Summary

Daily Weather History Graph

Daily Weather History Graph

Search for Another Location

Airport or City:

Trip Planner

Search our weather history database for the weather conditions in past years. The results will help you decide how hot, cold, wet, or windy it might be!

Date:

Astronomy

Jul. 21, 2013 Rise Set
Actual Time 5:52 AM CDT 7:45 PM CDT
Civil Twilight 5:25 AM CDT 8:12 PM CDT
Nautical Twilight 4:53 AM CDT 8:44 PM CDT
Astronomical Twilight 4:18 AM CDT 9:19 PM CDT
Moon 6:45 PM CDT (7/21) 4:36 AM CDT (7/21)
Length of Visible Light 14h 46m
Length of Day
13h 52m
Waxing Gibbous, 98% of the Moon is Illuminated
Jul 21
Waxing Gibbous
Jul 22
Full
Jul 29
Last Quarter
Aug 6
New
Aug 14
First Quarter

Hourly Weather History & Observations

Time (CDT) Temp. Heat Index Dew Point Humidity Pressure Visibility Wind Dir Wind Speed Gust Speed Precip Events Conditions
12:22 AM 73.4 °F - 73.4 °F 100% 30.04 in 10.0 mi SE 4.6 mph - N/A   Mostly Cloudy
12:32 AM 73.4 °F - 73.4 °F 100% 30.04 in 10.0 mi ESE 4.6 mph - N/A   Mostly Cloudy
12:42 AM 73.4 °F - 73.4 °F 100% 30.04 in 10.0 mi SSE 4.6 mph - N/A   Overcast
12:58 AM 73.8 °F - 73.6 °F 99% 30.03 in 10.0 mi SSE 4.6 mph - N/A   Mostly Cloudy
1:08 AM 73.4 °F - 73.4 °F 100% 30.03 in 10.0 mi SSE 3.5 mph - N/A   Scattered Clouds
1:13 AM 73.4 °F - 73.4 °F 100% 30.03 in 10.0 mi SSE 4.6 mph - N/A   Partly Cloudy
1:58 AM 73.6 °F - 73.2 °F 99% 30.02 in 4.0 mi SSE 4.6 mph - N/A   Clear
2:08 AM 73.4 °F - 73.4 °F 100% 30.01 in 2.5 mi South 4.6 mph - N/A   Clear
2:18 AM 73.4 °F - 73.4 °F 100% 30.01 in 4.0 mi South 4.6 mph - N/A   Clear
2:32 AM 73.4 °F - 73.4 °F 100% 30.01 in 7.0 mi SSW 3.5 mph - N/A   Partly Cloudy
2:52 AM 73.4 °F - 73.4 °F 100% 30.01 in 1.8 mi SSW 3.5 mph - N/A   Partly Cloudy
2:58 AM 73.4 °F - 73.4 °F 100% 30.01 in 1.5 mi SSW 3.5 mph - N/A   Partly Cloudy
3:00 AM 73.4 °F - 73.4 °F 100% 30.01 in 0.8 mi SSW 3.5 mph - N/A   Mist
3:15 AM 73.4 °F - 73.4 °F 100% 30.02 in 0.2 mi WSW 3.5 mph - N/A Fog Fog
3:38 AM 73.4 °F - 73.4 °F 100% 30.02 in 0.2 mi SSW 2.3 mph - N/A Fog Fog
3:43 AM 73.4 °F - 73.4 °F 100% 30.02 in 0.5 mi SSW 2.3 mph - N/A Fog Fog
3:46 AM 73.4 °F - 73.4 °F 100% 30.02 in 0.5 mi SW 1.2 mph - N/A Fog Fog
3:48 AM 73.4 °F - 73.4 °F 100% 30.02 in 0.8 mi SW 2.3 mph - N/A   Mist
3:56 AM 73.4 °F - 73.4 °F 100% 30.01 in 0.8 mi SSW 3.5 mph - N/A   Mist
3:58 AM 73.4 °F - 73.4 °F 100% 30.01 in 1.0 mi SSW 3.5 mph - N/A   Mist
4:01 AM 73.4 °F - 73.4 °F 100% 30.01 in 1.2 mi SSW 4.6 mph - N/A   Overcast
4:03 AM 73.4 °F - 73.4 °F 100% 30.01 in 1.8 mi SSW 4.6 mph - N/A   Overcast
4:05 AM 73.4 °F - 73.4 °F 100% 30.01 in 2.5 mi SSW 4.6 mph - N/A   Overcast
4:07 AM 73.4 °F - 73.4 °F 100% 30.01 in 3.0 mi SSW 3.5 mph - N/A   Overcast
4:12 AM 73.4 °F - 73.4 °F 100% 30.01 in 2.5 mi SSW 4.6 mph - N/A   Overcast
4:17 AM 73.4 °F - 73.4 °F 100% 30.02 in 1.8 mi SSW 3.5 mph - N/A   Overcast
4:22 AM 73.4 °F - 73.4 °F 100% 30.02 in 1.2 mi South 3.5 mph - N/A   Overcast
4:27 AM 73.4 °F - 73.4 °F 100% 30.02 in 0.8 mi SSW 3.5 mph - N/A   Overcast
4:32 AM 73.4 °F - 73.4 °F 100% 30.02 in 0.5 mi SSW 4.6 mph - N/A Fog Fog
4:58 AM 73.8 °F - 73.4 °F 99% 30.02 in 0.2 mi SSW 1.2 mph - N/A Fog Fog
5:58 AM 73.9 °F - 73.4 °F 98% 30.03 in 0.2 mi Calm Calm - N/A Fog Fog
6:13 AM 73.4 °F - 73.4 °F 100% 30.04 in 0.2 mi SSE 2.3 mph - N/A Fog Fog
6:23 AM 73.4 °F - 73.4 °F 100% 30.04 in 0.2 mi SSE 2.3 mph - N/A Fog Fog
6:38 AM 73.4 °F - 73.4 °F 100% 30.05 in 0.5 mi SE 1.2 mph - N/A Fog Fog
6:48 AM 73.4 °F - 73.4 °F 100% 30.05 in 0.8 mi South 3.5 mph - N/A   Mist
6:58 AM 74.1 °F - 73.2 °F 97% 30.05 in 0.5 mi South 2.3 mph - N/A Fog Fog
7:08 AM 73.4 °F - 73.4 °F 100% 30.05 in 0.8 mi South 3.5 mph - N/A   Mist
7:13 AM 75.2 °F - 73.4 °F 94% 30.05 in 1.5 mi South 3.5 mph - N/A   Mostly Cloudy
7:18 AM 75.2 °F - 73.4 °F 94% 30.05 in 5.0 mi South 3.5 mph - N/A   Mostly Cloudy
7:23 AM 75.2 °F - 73.4 °F 94% 30.05 in 10.0 mi South 3.5 mph - N/A   Scattered Clouds
7:53 AM 75.2 °F - 73.4 °F 94% 30.06 in 10.0 mi SSW 4.6 mph - N/A   Mostly Cloudy
7:58 AM 75.9 °F - 73.9 °F 94% 30.06 in 10.0 mi SSW 4.6 mph - N/A   Mostly Cloudy
8:08 AM 77.0 °F - 75.2 °F 94% 30.06 in 10.0 mi SW 4.6 mph - N/A   Mostly Cloudy
8:13 AM 77.0 °F - 75.2 °F 94% 30.06 in 10.0 mi SSW 4.6 mph - N/A   Scattered Clouds
8:53 AM 78.8 °F - 77.0 °F 94% 30.07 in 10.0 mi SW 6.9 mph - N/A   Mostly Cloudy
8:58 AM 79.2 °F - 77.9 °F 96% 30.06 in 10.0 mi SW 10.4 mph - N/A   Mostly Cloudy
9:03 AM 78.8 °F - 78.8 °F 100% 30.06 in 10.0 mi Variable 6.9 mph - N/A   Mostly Cloudy
9:08 AM 80.6 °F 88.1 °F 78.8 °F 94% 30.06 in 10.0 mi Variable 5.8 mph - N/A   Mostly Cloudy
9:33 AM 80.6 °F 87.1 °F 77.0 °F 89% 30.06 in 10.0 mi WSW 6.9 mph - N/A   Scattered Clouds
9:58 AM 82.9 °F 91.8 °F 77.0 °F 82% 30.07 in 10.0 mi SW 8.1 mph - N/A   Partly Cloudy
10:58 AM 86.5 °F 94.6 °F 73.8 °F 66% 30.07 in 10.0 mi SSW 6.9 mph - N/A   Mostly Cloudy
11:21 AM 82.4 °F 89.5 °F 75.2 °F 79% 30.07 in 10.0 mi West 11.5 mph - N/A   Light Drizzle
11:30 AM 82.4 °F 87.2 °F 71.6 °F 70% 30.07 in 10.0 mi WNW 5.8 mph - N/A   Mostly Cloudy
11:58 AM 84.0 °F 91.2 °F 74.1 °F 72% 30.06 in 10.0 mi West 10.4 mph - 0.00 in   Overcast
12:58 PM 83.8 °F 91.8 °F 75.0 °F 75% 30.05 in 10.0 mi South 6.9 mph - N/A   Mostly Cloudy
1:09 PM 82.4 °F 89.5 °F 75.2 °F 79% 30.06 in 2.5 mi SSW 15.0 mph 24.2 mph N/A Rain Light Rain
1:10 PM 82.4 °F 89.5 °F 75.2 °F 79% 30.06 in 2.5 mi SW 11.5 mph 24.2 mph N/A Rain Light Rain
1:15 PM 78.8 °F - 73.4 °F 83% 30.06 in 0.5 mi SSW 6.9 mph 24.2 mph N/A Rain Heavy Rain
1:19 PM 77.0 °F - 73.4 °F 89% 30.06 in 0.8 mi SW 6.9 mph 24.2 mph N/A Rain , Thunderstorm Light Thunderstorms and Rain
1:24 PM 78.8 °F - 75.2 °F 89% 30.06 in 8.0 mi SSW 9.2 mph - N/A Rain , Thunderstorm Light Thunderstorms and Rain
1:25 PM 78.8 °F - 75.2 °F 89% 30.06 in 10.0 mi SW 9.2 mph - N/A Thunderstorm Thunderstorm
1:27 PM 78.8 °F - 75.2 °F 89% 30.06 in 10.0 mi SW 8.1 mph - N/A Rain , Thunderstorm Light Thunderstorms and Rain
1:46 PM 78.8 °F - 75.2 °F 89% 30.05 in 10.0 mi WSW 6.9 mph - N/A Thunderstorm Thunderstorm
1:47 PM 78.8 °F - 75.2 °F 89% 30.05 in 10.0 mi WSW 6.9 mph - N/A   Overcast
1:48 PM 78.8 °F - 73.4 °F 83% 30.05 in 10.0 mi West 8.1 mph - N/A Rain Light Rain
1:58 PM 77.7 °F - 74.5 °F 90% 30.04 in 8.0 mi SW 5.8 mph - 0.21 in Rain Light Rain
2:20 PM 78.8 °F - 75.2 °F 89% 30.03 in 10.0 mi Variable 5.8 mph - N/A   Mostly Cloudy
2:58 PM 81.3 °F 87.6 °F 75.4 °F 82% 30.02 in 10.0 mi SSW 4.6 mph - 0.00 in   Mostly Cloudy
3:14 PM 82.4 °F 89.5 °F 75.2 °F 79% 30.02 in 10.0 mi SSW 12.7 mph 19.6 mph N/A Rain Light Rain
3:44 PM 78.8 °F - 73.4 °F 83% 30.02 in 10.0 mi SSW 6.9 mph - N/A   Mostly Cloudy
3:58 PM 79.9 °F - 73.8 °F 81% 30.02 in 10.0 mi SW 4.6 mph - 0.00 in   Mostly Cloudy
4:58 PM 84.7 °F 92.8 °F 75.0 °F 72% 30.01 in 10.0 mi SW 8.1 mph - N/A   Partly Cloudy
4:59 PM 84.2 °F 92.3 °F 75.2 °F 74% 30.01 in 10.0 mi SW 8.1 mph - N/A Rain Light Rain
5:14 PM 78.8 °F - 75.2 °F 89% 30.02 in 1.0 mi West 18.4 mph 27.6 mph N/A Rain Heavy Rain
5:19 PM 77.0 °F - 73.4 °F 89% 30.03 in 0.8 mi WNW 11.5 mph 27.6 mph N/A Rain Heavy Rain
5:20 PM 77.0 °F - 71.6 °F 83% 30.03 in 0.8 mi WNW 11.5 mph 27.6 mph N/A Rain , Thunderstorm Light Thunderstorms and Rain
5:25 PM 75.2 °F - 73.4 °F 94% 30.03 in 4.0 mi WNW 6.9 mph 25.3 mph N/A Rain , Thunderstorm Light Thunderstorms and Rain
5:35 PM 75.2 °F - 73.4 °F 94% 30.03 in 10.0 mi WNW 9.2 mph - N/A Thunderstorm Mostly Cloudy
5:42 PM 75.2 °F - 73.4 °F 94% 30.03 in 10.0 mi West 6.9 mph - N/A Thunderstorm Thunderstorm
5:57 PM 75.2 °F - 73.4 °F 94% 30.03 in 10.0 mi WSW 5.8 mph - N/A Thunderstorm Partly Cloudy
5:58 PM 75.9 °F - 73.0 °F 91% 30.03 in 10.0 mi WSW 4.6 mph - 0.20 in Thunderstorm Partly Cloudy
6:58 PM 76.8 °F - 72.9 °F 88% 30.03 in 10.0 mi SW 9.2 mph - N/A   Partly Cloudy
7:58 PM 75.7 °F - 73.2 °F 92% 30.04 in 10.0 mi SW 4.6 mph - N/A   Partly Cloudy
8:58 PM 75.2 °F - 73.4 °F 94% 30.05 in 10.0 mi SW 2.3 mph - N/A   Clear
9:58 PM 74.3 °F - 73.0 °F 96% 30.06 in 10.0 mi SE 3.5 mph - N/A   Scattered Clouds
10:58 PM 73.9 °F - 73.4 °F 98% 30.07 in 10.0 mi SSE 3.5 mph - N/A   Mostly Cloudy
11:58 PM 73.8 °F - 73.2 °F 98% 30.07 in 10.0 mi SSW 5.8 mph - N/A   Mostly Cloudy